This is the latest recevied weather packets stored in our database for station/object K0GDI. If no packets are shown the sender has not sent any weather packets the latest 10 day(s).
| Time | Temp. | Humidity | Pressure | Rain* | Wind** | Luminosity | Snow |
|---|---|---|---|---|---|---|---|
| 1788148419 | 23.89° C | 62% | 1017 hPa | 0 mm | 1.34 m/s, 155° | - | - |
| 1788147805 | 23.89° C | 65% | 1017 hPa | 0 mm | 0.89 m/s, 160° | - | - |
| 1788147189 | 23.89° C | 64% | 1017 hPa | 0 mm | 0.89 m/s, 159° | - | - |
| 1788146574 | 23.89° C | 63% | 1017 hPa | 0 mm | 1.34 m/s, 155° | - | - |
| 1788145961 | 24.44° C | 63% | 1017 hPa | 0 mm | 1.34 m/s, 158° | - | - |
| 1788145345 | 24.44° C | 65% | 1017 hPa | 0 mm | 1.34 m/s, 160° | - | - |
| 1788144731 | 24.44° C | 64% | 1017 hPa | 0 mm | 1.34 m/s, 154° | - | - |
| 1788144117 | 24.44° C | 67% | 1017 hPa | 0 mm | 0.89 m/s, 165° | - | - |
| 1788143502 | 24.44° C | 65% | 1017 hPa | 0 mm | 0.89 m/s, 163° | - | - |
| 1788142888 | 25° C | 65% | 1017 hPa | 0 mm | 0.89 m/s, 166° | - | - |
| 1788142274 | 25.56° C | 63% | 1017 hPa | 0 mm | 0.89 m/s, 162° | - | - |
| 1788141046 | 26.11° C | 61% | 1017 hPa | 0 mm | 1.34 m/s, 160° | - | - |
| 1788140430 | 26.11° C | 61% | 1017 hPa | 0 mm | 0.89 m/s, 158° | - | - |
| 1788139816 | 25.56° C | 62% | 1017 hPa | 0 mm | 0.89 m/s, 170° | - | - |
| 1788139203 | 26.11° C | 62% | 1017 hPa | 0 mm | 0.45 m/s, 166° | - | - |
| 1788138586 | 26.67° C | 60% | 1017 hPa | 0 mm | 0.89 m/s, 159° | - | - |
| 1788137359 | 27.22° C | 58% | 1017 hPa | 0 mm | 0.89 m/s, 166° | - | - |
| 1788136743 | 27.78° C | 57% | 1017 hPa | 0 mm | 0.89 m/s, 158° | - | - |
| 1788136129 | 28.33° C | 55% | 1017 hPa | 0 mm | 0.89 m/s, 162° | - | - |
| 1788135515 | 28.33° C | 54% | 1017 hPa | 0 mm | 1.34 m/s, 161° | - | - |
| 1788134901 | 28.89° C | 53% | 1017 hPa | 0 mm | 0.89 m/s, 171° | - | - |
| 1788134287 | 29.44° C | 52% | 1017 hPa | 0 mm | 0.89 m/s, 161° | - | - |
| 1788133673 | 29.44° C | 50% | 1017 hPa | 0 mm | 1.34 m/s, 154° | - | - |
| 1788133058 | 30° C | 49% | 1017 hPa | 0 mm | 1.34 m/s, 158° | - | - |
| 1788132444 | 30.56° C | 48% | 1017 hPa | 0 mm | 0.89 m/s, 158° | - | - |
* Rain latest hour (hover to see other rain measurements)
** Current wind speed in m/s (hover to see current wind gust speed)